169P/NEAT (2002 EX12)

Epoch 2005 Sept. 27.0 TT = JDT 2453640.5  

T 2005 Sept. 17.85868 TT                                Nakano

q   0.6053278            (2000.0)            P               Q

n   0.23460353     Peri.  217.92687     +0.82656366     -0.56269653

a   2.6036325      Node   176.24602     +0.55238462     +0.80661233

e   0.7675064      Incl.   11.31898     +0.10799886     +0.18096728

P   4.20

From 514 observations 1989-2005, mean residual 0".38.

Residuals in seconds of arc 

1989/                     050714 104  0.2-  0.1+    050728 151  0.0   0.1+  

890307 261  0.9-  0.2-    050714 104  0.3-  0.1+    050728 151  0.4-  0.2+  

890307 261  0.7+  0.2-    050714 A53  0.3-  0.2+    050728 151  0.1-  0.3+  

1998/                     050714 157  0.1-  0.2-    050728 151  0.0   0.1+  

980403 691  0.8+  0.8-    050714 A53  0.1-  0.1+    050728 151  0.2-  0.4+  

980403 691  0.8+  0.9-    050714 157  0.0   0.3-    050728 151  0.3-  0.1-  

980403 691  0.7+  0.6-    050714 157  0.1-  0.3-    050728 151  0.4-  0.0   

2002/                     050714 157  0.2-  0.4-    050728 151  0.2-  0.2+  

020315 644  0.1+  0.3+    050714 A53  0.3-  0.2+    050728 151  0.0   0.0   

020315 644  0.2+  0.2+    050714 A74  0.2+  0.4-    050728 151  0.2-  0.2+  

020315 644  0.2+  0.5+    050714 170  0.1+  0.2-    050728 151  0.1-  0.3+  

020316 704  0.8-  1.6+    050714 170  0.1+  0.1-    050728 151  0.2-  0.2+  

020316 704 (0.7-  2.3+)   050714 170  0.3+  0.2-    050728 151  0.1-  0.2+  

020316 704  0.2-  1.5+    050714 203  0.2+  0.2-    050728 151  0.0   0.1+  

020316 704  0.6-  0.5+    050714 A74  0.1+  0.4-    050728 151  0.1-  0.0   

020317 691  0.1-  0.4+    050714 203  0.1-  0.4-    050728 151  0.0   0.1+  

020317 691  0.0   0.7+    050714 A74  0.1+  0.4-    050728 151  0.0   0.0   

020317 691  0.4-  0.2+    050714 A74  0.0   0.3-    050728 A48  0.1+  0.1+  

020317 422  0.6+  1.0+    050715 754  0.2-  0.0     050728 151  0.3-  0.1+  

020318 651  0.9+  1.1+    050715 754  0.1+  0.2-    050728 151  0.2-  0.2+  

020318 651  1.5-  0.4+    050715 160  0.4-  0.4-    050728 151  0.1-  0.1+  

020318 651  0.0   0.1+    050715 160  0.0   0.4-    050728 151  0.1-  0.2+  

020318 246  0.1+  0.2+    050715 A48  0.0   0.0     050728 A48  0.1-  0.2+  

020318 246  1.4+  0.2-    050715 160  0.1-  0.2-    050728 A48  0.0   0.1+  

020318 246  0.9+  0.8+    050715 A48  0.1-  0.0     050728 A48  0.1-  0.3+  

020318 246  0.4+  0.2-    050715 160  0.2-  0.2-    050728 A48  0.0   0.2+  

020318 246  1.2-  0.7+    050715 A48  0.0   0.1+    050729 H45  0.9+  0.2-  

020319 557  0.5-  1.9-    050715 560  0.0   0.1-    050729 H45  0.4+  0.1-  

020319 557  1.0+  1.4-    050715 560  0.0   0.0     050729 H45  0.7+  0.4-  

020319 557 (1.0-  2.6-)   050715 560  0.1+  0.0     050729 H45  0.4+  0.0   

020320 704  0.4+  0.4+    050715 A06 (1.6+  3.7-)   050729 H45  0.7+  0.1+  

020320 704  1.0+  0.3+    050715 A06 (2.0+  3.6-)   050729 379  0.1+  0.1-  

020320 704  1.0+  0.1-    050716 A06 (1.7+  3.7-)   050729 379  0.1+  0.2+  

020320 704  0.5+  0.3-    050716 A06 (2.3+  3.7-)   050729 379  0.1-  0.0   

020320 644  0.6+  0.4+    050716 A06 (2.3+  3.2-)   050729 379  0.1+  0.3-  

020320 644  0.2+  0.4+    050716 J94  0.3-  0.5-    050729 379  0.1-  0.3-  

020320 644  0.4+  0.4+    050716 J94  0.1+  0.1-    050729 379  0.0   0.2-  

020401 246  0.7-  0.5+    050716 J94  0.1-  0.4-    050729 379  0.2-  0.4-  

020401 246  0.2+  0.2-    050717 A13  0.3-  0.1+    050729 379  0.2+  0.0   

020401 246  1.4+  0.6+    050717 A13  0.2-  0.2+    050729 379  0.1+  0.3-  

020401 246  0.3+  0.4+    050717 A13  0.3-  0.1+    050729 379  0.2+  0.2+  

020401 246  0.7-  0.4+    050717 A48  0.1-  0.0     050729 379  0.1-  0.1-  

020401 966  0.6-  0.5+    050717 A13  0.2-  0.1+    050729 379  0.3+  0.2-  

020401 966  0.6+  0.5+    050717 A48  0.2+  0.2+    050729 A78  0.5-  0.1+  

020402 658  1.0+  1.0+    050717 A13  0.1-  0.4+    050729 A78  0.1-  0.2+  

020402 658  0.4-  0.5+    050717 A48  0.1+  0.1+    050729 A48  0.1+  0.3+  

020402 658  0.2+  0.1-    050717 A48  0.4+  0.2-    050729 A48  0.1+  0.1+  

020402 413  1.0+  0.9+    050717 J94  0.5-  0.1+    050729 A78  0.3-  0.2+  

020402 413  0.0   0.9+    050717 J94  0.0   0.2+    050729 A48  0.2+  0.0   

020402 413  0.3+  0.2+    050717 J94  0.1-  0.0     050729 A78  0.4-  0.2+  

020402 341 (0.4-  3.4+)   050718 379  0.2-  0.1-    050729 A48  0.1+  0.1+  

020403 413  0.4-  0.1+    050718 379  0.2-  0.3-    050729 A48  0.2+  0.0   

020403 413  0.3-  0.2+    050718 379  0.4-  0.1+    050729 940  0.4+  0.0   

020403 413  0.5-  0.1+    050718 379  0.5-  0.4-    050729 940  0.2+  0.2+  

020406 696  0.1-  0.3-    050718 379  0.0   0.1-    050729 940  0.2-  0.5+  

020406 696  0.1-  0.0     050718 379  0.4-  0.0     050729 940  0.2+  0.1+  

020422 413  0.1-  0.1+    050718 379  0.3-  0.1+    050729 940  0.3-  0.0   

020422 413  0.1-  0.4+    050719 704  0.4-  0.1-    050730 H45  1.0+  0.3+  

020507 696  0.1+  0.2-    050719 704  1.2-  0.5-    050730 H45  0.8+  0.1-  

020507 696  0.1+  0.1+    050719 704 (2.1-  0.2-)   050730 H45  1.1+  0.4-  

2003/                     050719 704  1.3-  0.5-    050730 H45  0.6+  0.2-  

030426 696  0.2-  0.1+    050720 379  0.3-  0.1+    050730 H45  0.8+  0.2+  

030426 696  0.1-  0.2-    050720 379  0.1-  0.0     050730 A78  0.1-  0.1+  

2005/                     050720 A48  0.2+  0.0     050730 A78  0.0   0.3+  

050510 F65  0.0   0.0     050720 A48  0.0   0.0     050730 A78  0.1+  0.1-  

050510 F65  0.2+  0.1+    050720 A48  0.1-  0.1+    050730 A78  0.4-  0.0   

050510 F65  0.0   0.0     050720 A48  0.1-  0.1+    050730 A32  0.1+  0.1-  

050510 F65  0.1+  0.0     050720 A48  0.1-  0.0     050730 A32  0.3+  0.1-  

050510 F65  0.2+  0.2+    050720 A06  0.1-  0.3-    050730 A32  0.3+  0.0   

050606 704  0.8+  0.3+    050720 A06  0.1-  0.1-    050730 A32  0.3+  0.0   

050606 704  0.1+  0.1+    050720 A06  0.2-  0.1-    050730 A32  0.3+  0.2-  

050606 704  0.4+  1.4+    050720 A06  0.6-  0.2-    050731 A48  0.2+  0.2+  

050606 704  0.2+  0.2+    050720 A06  0.2-  0.3-    050731 A48  0.1-  0.2+  

050606 704  0.4+  0.1-    050720 A06  0.1-  0.0     050731 A48  0.1+  0.3+  

050611 A50  0.3-  0.4+    050720 A06  0.1-  0.3-    050731 A48  0.2+  0.2+  

050611 A50  0.3-  0.0     050720 952  0.1-  0.2-    050731 560  0.2+  0.1-  

050611 A50  0.0   0.0     050720 952  0.1-  0.3-    050731 560  0.1+  0.0   

050611 A50 (0.8-  2.5+)   050720 952  0.1-  0.3-    050731 560  0.3+  0.1-  

050611 A50  0.6-  1.2+    050720 952  0.0   0.3-    050801 379  0.8+  0.2-  

050613 071  0.1+  0.3+    050720 A53  0.0   0.1+    050801 379  0.7+  0.0   

050613 071  0.1-  1.4+    050720 A53  0.0   0.0     050801 379  0.3+  0.5+  

050613 071  0.0   1.2+    050720 A53  0.1+  0.1-    050801 379  0.1+  0.7+  

050613 071 (0.2-  3.1+)   050721 379  0.2-  0.2+    050801 118  0.1-  0.2+  

050613 071  0.1-  0.1+    050721 379  0.2-  0.3-    050801 118  0.0   0.1+  

050613 071 (0.2-  2.5-)   050721 379  0.4-  0.1+    050801 118  0.2-  0.2+  

050613 071  0.6-  1.5+    050721 379  1.0-  0.2+    050801 118  0.1-  0.1+  

050613 071  0.5-  0.4+    050721 379  0.1-  0.3+    050801 J95  0.2-  0.2+  

050613 071  0.6-  0.7+    050721 379  0.2-  0.3+    050801 J95  0.2-  0.1+  

050618 A62  0.2+  0.1+    050721 A53  0.2-  0.1-    050801 J95  0.1-  0.1+  

050619 A62  0.2+  0.1+    050721 A53  0.1-  0.2+    050802 355  0.1-  0.2-  

050619 A62  0.2+  0.1+    050721 A53  0.1-  0.2+    050802 355  0.0   0.1-  

050619 A62  0.0   0.2+    050721 A53  0.0   0.2+    050802 355  0.0   0.1-  

050619 A62  0.1+  0.2-    050723 941  0.1-  0.2-    050802 355  0.0   0.0   

050619 A62  0.1+  0.0     050723 941  0.2-  0.4-    050802 940  0.4-  0.0   

050619 A62  0.1+  0.1-    050723 941  0.3-  0.3-    050802 938  0.4+  0.8-  

050619 A62  0.2+  0.1-    050723 941  0.1-  0.4-    050802 938  0.0   0.4-  

050619 A62  0.0   0.2-    050723 941  0.1-  0.1-    050802 938  0.1+  0.5-  

050619 A62  0.0   0.1-    050724 H45  0.1-  1.1-    050802 940  0.2-  0.0   

050619 A62  0.2+  0.1-    050724 H45  0.3-  0.0     050802 940  0.1-  0.4+  

050619 A62  0.2+  0.0     050724 H45  0.2+  0.5-    050802 938  0.7-  0.2+  

050626 I77  0.0   0.7-    050724 H45  0.2-  0.6-    050802 938  0.0   0.8+  

050626 I77  0.1+  0.7-    050724 H45  0.1+  0.5-    050802 938  0.6-  0.3+  

050626 I77  0.0   0.6-    050725 932  0.1-  0.2-    050802 940  0.2+  0.1+  

050626 160  0.1-  0.3-    050725 932  0.1-  0.1-    050802 940  0.2-  0.1+  

050626 160  0.1+  0.5-    050725 932  0.2-  0.2-    050802 A32  0.2-  0.1+  

050626 160  0.2-  0.2-    050726 A48  0.2+  0.1+    050802 A32  0.1-  0.2+  

050626 160  0.4-  0.1+    050726 A48  0.1-  0.2+    050802 A32  0.0   0.0   

050627 127  0.2+  0.5+    050726 A48  0.0   0.2+    050802 A32  0.0   0.2+  

050627 127  0.1+  0.4+    050726 A48  0.2+  0.1+    050802 A32  0.1-  0.0   

050627 127  0.4+  0.5+    050726 A48  0.0   0.1+    050803 932  0.3-  0.2+  

050630 704  1.2+  1.4-    050726 151  0.0   0.0     050803 932  0.2-  0.2+  

050630 704  0.1+  0.4-    050726 151  0.2-  0.2-    050803 932  0.0   0.2+  

050630 704  1.1+  0.7+    050726 151  0.1-  0.0     050803 213  0.4+  0.1+  

050630 704  0.7-  1.0-    050726 151  0.2-  0.0     050803 213  0.1+  0.1-  

050630 704 (2.0-  1.5-)   050726 151  0.1-  0.1-    050803 213  0.4+  0.2+  

050702 130  0.1-  0.2-    050726 151  0.1-  0.3-    050803 A67  1.0+  0.5-  

050702 130  0.1-  0.5-    050726 151  0.1-  0.0     050803 A67  0.8+  0.4-  

050702 130  0.2-  0.2-    050726 151  0.2-  0.0     050803 A67  0.6+  0.1-  

050702 130  0.5-  0.3-    050726 151  0.2-  0.3-    050803 A67  0.6+  0.2-  

050702 130  0.4-  0.1-    050726 151  0.1-  0.0     050803 J71  1.4-  0.4+  

050703 151  0.0   0.5-    050726 151  0.0   0.0     050803 A67  0.5+  0.3-  

